KD5HIA Weather Reports


Display with metric or nautical units.
time (UTC)temp
F
wind
direction
speed
MPH
gust
MPH
rain 1hr
in
rain 24hr
in
rain mn
in
humidity
%
barometer
mb
20260906222518 96 135 4.0 8.0 0.00 0.00 0.00 37 1012.3
20260906221518 96 135 5.0 10.0 0.00 0.00 0.00 38 1012.2
20260906220518 95 135 6.0 10.0 0.00 0.00 0.00 39 1012.3
20260906215518 95 158 5.0 9.0 0.00 0.00 0.00 40 1012.4
20260906214518 95 135 6.0 12.0 0.00 0.00 0.00 40 1012.5
20260906213518 95 113 9.0 13.0 0.00 0.00 0.00 39 1012.6
20260906212518 96 135 7.0 13.0 0.00 0.00 0.00 39 1012.8
20260906211518 95 113 6.0 12.0 0.00 0.00 0.00 40 1012.9
20260906210518 95 135 7.0 10.0 0.00 0.00 0.00 39 1013.1
20260906205518 95 135 9.0 14.0 0.00 0.00 0.00 41 1013.3
20260906204518 96 113 10.0 16.0 0.00 0.00 0.00 40 1013.5
20260906203518 95 90 7.0 14.0 0.00 0.00 0.00 40 1013.6
20260906202518 96 90 8.0 15.0 0.00 0.00 0.00 40 1013.7
20260906201518 96 113 8.0 15.0 0.00 0.00 0.00 40 1013.8
20260906200518 96 135 8.0 15.0 0.00 0.00 0.00 39 1013.9
20260906195518 96 90 7.0 13.0 0.00 0.00 0.00 40 1014.0
20260906194518 95 68 3.0 7.0 0.00 0.00 0.00 40 1013.9
20260906193518 96 90 4.0 8.0 0.00 0.00 0.00 40 1014.2
20260906192518 95 135 5.0 9.0 0.00 0.00 0.00 41 1014.3
20260906191518 96 113 6.0 13.0 0.00 0.00 0.00 41 1014.3
20260906190518 94 68 4.0 9.0 0.00 0.00 0.00 45 1014.4
20260906185518 94 90 5.0 11.0 0.00 0.00 0.00 45 1014.5
20260906184518 93 68 3.0 7.0 0.00 0.00 0.00 46 1014.8
20260906183518 92 68 4.0 8.0 0.00 0.00 0.00 48 1014.9
20260906182516 91 68 3.0 10.0 0.00 0.00 0.00 49 1015.1
20260906181518 91 90 3.0 8.0 0.00 0.00 0.00 49 1015.2
20260906180518 90 90 2.0 6.0 0.00 0.00 0.00 49 1015.3
20260906175518 90 90 3.0 8.0 0.00 0.00 0.00 51 1015.5
20260906174518 90 90 3.0 9.0 0.00 0.00 0.00 50 1015.6
20260906173518 90 90 3.0 8.0 0.00 0.00 0.00 50 1015.8
20260906172518 90 113 4.0 8.0 0.00 0.00 0.00 50 1015.9
20260906171518 89 113 5.0 10.0 0.00 0.00 0.00 52 1016.2
20260906170516 89 113 4.0 8.0 0.00 0.00 0.00 51 1016.2
20260906165518 89 90 2.0 4.0 0.00 0.00 0.00 53 1016.3
20260906164518 89 68 4.0 9.0 0.00 0.00 0.00 52 1016.3
20260906163518 89 68 3.0 6.0 0.00 0.00 0.00 53 1016.3
20260906162518 89 45 1.0 3.0 0.00 0.00 0.00 56 1016.3
20260906161516 89 0.0 2.0 0.00 0.00 0.00 56 1016.5
20260906160516 88 270 1.0 6.0 0.00 0.00 0.00 60 1016.5
20260906155516 87 0.0 2.0 0.00 0.00 0.00 60 1016.5
20260906154516 87 0.0 2.0 0.00 0.00 0.00 61 1016.4
20260906153516 85 203 1.0 2.0 0.00 0.00 0.00 64 1016.2
20260906152519 84 135 1.0 3.0 0.00 0.00 0.00 66 1016.1
20260906151519 83 113 1.0 2.0 0.00 0.00 0.00 66 1016.1
20260906150519 83 135 1.0 2.0 0.00 0.00 0.00 67 1016.0
20260906145516 81 158 1.0 3.0 0.00 0.00 0.00 70 1015.9
20260906144516 81 0.0 2.0 0.00 0.00 0.00 71 1016.0
20260906143516 80 180 1.0 4.0 0.00 0.00 0.00 72 1016.0
20260906142516 79 0.0 0.0 0.00 0.00 0.00 73 1015.9
20260906141516 79 0.0 1.0 0.00 0.00 0.00 74 1015.8
20260906140516 77 0.0 2.0 0.00 0.00 0.00 75 1015.7
20260906135516 77 0.0 0.0 0.00 0.00 0.00 76 1015.7
20260906134516 75 248 1.0 2.0 0.00 0.00 0.00 78 1015.5
20260906133516 75 0.0 2.0 0.00 0.00 0.00 79 1015.4
20260906132516 74 0.0 3.0 0.00 0.00 0.00 80 1015.2
20260906131516 73 0.0 0.0 0.00 0.00 0.00 81 1015.3
20260906130516 73 0.0 0.0 0.00 0.00 0.00 82 1015.2
20260906125516 72 0.0 0.0 0.00 0.00 0.00 82 1014.9
20260906124516 72 0.0 0.0 0.00 0.00 0.00 82 1014.9
20260906123516 72 0.0 0.0 0.00 0.00 0.00 83 1014.7
20260906122516 72 0.0 0.0 0.00 0.00 0.00 82 1014.5
20260906121516 72 0.0 0.0 0.00 0.00 0.00 82 1014.7
20260906120516 72 0.0 1.0 0.00 0.00 0.00 82 1014.7
20260906115516 73 0.0 0.0 0.00 0.00 0.00 81 1014.5
20260906114516 73 270 1.0 1.0 0.00 0.00 0.00 81 1014.3
20260906113516 73 270 2.0 2.0 0.00 0.00 0.00 81 1014.3
20260906112516 73 270 1.0 2.0 0.00 0.00 0.00 80 1014.2
20260906111516 73 0.0 2.0 0.00 0.00 0.00 79 1014.5
20260906110516 73 270 1.0 3.0 0.00 0.00 0.00 79 1014.2
20260906105516 74 270 1.0 2.0 0.00 0.00 0.00 79 1014.2
20260906104516 74 270 2.0 2.0 0.00 0.00 0.00 78 1014.1
20260906103516 74 0.0 2.0 0.00 0.00 0.00 78 1014.2
20260906102516 75 0.0 2.0 0.00 0.00 0.00 77 1014.3
20260906101516 74 248 1.0 2.0 0.00 0.00 0.00 78 1014.3
20260906100516 74 0.0 0.0 0.00 0.00 0.00 78 1014.3
20260906095516 73 0.0 0.0 0.00 0.00 0.00 78 1014.0
20260906094516 73 0.0 0.0 0.00 0.00 0.00 77 1014.0
20260906093516 74 225 1.0 3.0 0.00 0.00 0.00 76 1013.8
20260906092516 74 203 3.0 3.0 0.00 0.00 0.00 77 1013.8
20260906091516 74 180 2.0 3.0 0.00 0.00 0.00 77 1013.7
20260906090516 74 180 2.0 3.0 0.00 0.00 0.00 77 1013.9
20260906085516 74 158 3.0 4.0 0.00 0.00 0.00 76 1014.0
20260906084516 74 158 3.0 5.0 0.00 0.00 0.00 76 1014.0
20260906083516 75 135 3.0 4.0 0.00 0.00 0.00 74 1013.9
20260906082516 75 0.0 1.0 0.00 0.00 0.00 72 1013.9
20260906081516 75 0.0 0.0 0.00 0.00 0.00 72 1013.9
20260906080516 76 0.0 0.0 0.00 0.00 0.00 71 1014.1
20260906075516 77 0.0 0.0 0.00 0.00 0.00 71 1014.0
20260906074516 77 0.0 0.0 0.00 0.00 0.00 70 1014.1
20260906073516 77 0.0 0.0 0.00 0.00 0.00 70 1014.1
20260906072516 77 0.0 0.0 0.00 0.00 0.00 69 1014.3
20260906071516 77 0.0 0.0 0.00 0.00 0.00 69 1014.4
20260906070516 78 0.0 0.0 0.00 0.00 0.00 69 1014.6
20260906065516 77 0.0 0.0 0.00 0.00 0.00 70 1014.6
20260906064516 78 0.0 0.0 0.00 0.00 0.00 69 1014.5
20260906063516 79 0.0 0.0 0.00 0.00 0.00 68 1014.4
20260906062516 79 0.0 0.0 0.00 0.00 0.00 66 1014.7
20260906061516 79 0.0 0.0 0.00 0.00 0.00 67 1014.8
20260906060516 78 0.0 0.0 0.00 0.00 0.00 68 1014.8
20260906055516 79 0.0 1.0 0.00 0.00 0.00 66 1014.9
20260906054516 79 0.0 1.0 0.00 0.00 0.00 66 1014.5
20260906053516 79 180 1.0 2.0 0.00 0.00 0.00 65 1014.6
20260906052516 79 180 2.0 3.0 0.00 0.00 0.00 65 1014.6
20260906051516 80 158 2.0 2.0 0.00 0.00 0.00 64 1014.9
20260906050516 81 158 2.0 2.0 0.00 0.00 0.00 63 1014.9
20260906045516 81 180 1.0 2.0 0.00 0.00 0.00 63 1014.9
20260906044516 81 180 1.0 2.0 0.00 0.00 0.00 62 1014.9
20260906043516 81 180 1.0 2.0 0.00 0.00 0.00 63 1014.8
20260906042516 81 180 2.0 2.0 0.00 0.00 0.00 62 1014.8
20260906041516 82 180 2.0 3.0 0.00 0.00 0.00 61 1014.6
20260906040516 83 180 2.0 4.0 0.00 0.00 0.00 60 1014.6
20260906035516 83 158 3.0 5.0 0.00 0.00 0.00 59 1014.5
20260906034516 83 158 3.0 5.0 0.00 0.00 0.00 58 1014.3
20260906033516 84 158 4.0 6.0 0.00 0.00 0.00 57 1014.3
20260906032516 84 158 4.0 7.0 0.00 0.00 0.00 57 1014.1
20260906031516 85 158 4.0 6.0 0.00 0.00 0.00 56 1013.8
20260906030516 85 158 4.0 6.0 0.00 0.00 0.00 55 1013.5
20260906025519 86 158 4.0 6.0 0.00 0.00 0.00 54 1013.2
20260906024519 87 158 5.0 7.0 0.00 0.00 0.00 54 1013.0
20260906023520 87 158 5.0 10.0 0.00 0.00 0.00 53 1012.9
20260906022516 88 158 5.0 8.0 0.00 0.00 0.00 53 1012.7
20260906021516 88 135 5.0 8.0 0.00 0.00 0.00 52 1012.4
20260906020516 89 135 8.0 11.0 0.00 0.00 0.00 51 1012.4
20260906015516 89 135 5.0 9.0 0.00 0.00 0.00 50 1012.1
20260906014516 90 135 5.0 8.0 0.00 0.00 0.00 48 1011.8
20260906013516 90 135 4.0 8.0 0.00 0.00 0.00 46 1011.8
20260906012516 91 135 6.0 9.0 0.00 0.00 0.00 44 1011.7
20260906011516 91 113 4.0 7.0 0.00 0.00 0.00 43 1011.4
20260906010516 92 113 1.0 4.0 0.00 0.00 0.00 42 1011.5
20260906005516 93 135 7.0 10.0 0.00 0.00 0.00 41 1011.4
20260906004516 94 113 6.0 11.0 0.00 0.00 0.00 41 1011.6
20260906003516 94 90 3.0 4.0 0.00 0.00 0.00 41 1011.5
20260906002516 95 68 7.0 12.0 0.00 0.00 0.00 41 1011.5
20260906001516 95 90 4.0 11.0 0.00 0.00 0.00 41 1011.6
20260906000516 95 90 3.0 11.0 0.00 0.00 0.00 41 1011.5
20260905235516 96 90 4.0 10.0 0.00 0.00 0.00 39 1011.5
20260905234516 96 90 7.0 14.0 0.00 0.00 0.00 40 1011.5
20260905233516 96 90 6.0 14.0 0.00 0.00 0.00 38 1011.3
20260905232516 96 90 5.0 12.0 0.00 0.00 0.00 39 1011.3
20260905231516 97 90 4.0 7.0 0.00 0.00 0.00 38 1011.4
20260905230516 97 90 3.0 8.0 0.00 0.00 0.00 37 1011.4
20260905225516 97 90 7.0 11.0 0.00 0.00 0.00 38 1011.3
20260905224516 97 90 6.0 11.0 0.00 0.00 0.00 38 1011.2
20260905223516 98 113 8.0 14.0 0.00 0.00 0.00 38 1011.4